Location: Ceske Budejovice
(48.9830°N, 14.4670°E)
Time: 04:54:53
(UTC+02:00)

Tiangong 2 - Visible Passes

Search period start: 23 May 2019 00:00
Search period end: 02 June 2019 00:00
Orbit: 379 x 387 km, 42.8° (Epoch: 22 May)

Date Brightness Start Highest point End Pass type
(mag) Time Alt. Az. Time Alt. Az. Time Alt. Az.
23 May 2.3 21:36:46 10° SW 21:39:21 24° S 21:41:56 10° ESE visible
23 May 3.1 23:13:00 10° WSW 23:14:11 17° SW 23:14:11 17° SW visible
24 May 2.2 22:13:02 10° WSW 22:15:42 25° S 22:16:54 20° SSE visible
25 May 2.7 22:49:39 10° WSW 22:51:42 19° SSW 22:51:42 19° SSW visible
26 May 2.5 21:49:35 10° WSW 21:52:09 23° S 21:54:16 13° SE visible
27 May 3.0 22:26:28 10° WSW 22:28:24 15° SSW 22:28:59 15° S visible
29 May 3.5 22:03:46 10° SW 22:04:44 11° SSW 22:05:42 10° S visible
